Regional Weather Roundup
Issued by NWS

Home | Current Version | Previous Version | Graphics & Text | Print | Product List | Glossary On
Versions: 1 2 3 4 5 6 7 8 9 10 11 12 13 14 15 16 17 18 19 20 21 22 23 24 25 26 27 28 29 30 31 32 33 34 35 36 37 38 39 40 41 42 43 44 45 46 47 48 49 50
000
ASUS43 KIND 100259
RWRIN

WEATHER ROUNDUP FOR INDIANA
NATIONAL WEATHER SERVICE INDIANAPOLIS IN
1000 PM EST TUE FEB 09 2016

NOTE: "FAIR" INDICATES FEW OR NO CLOUDS BELOW 12,000 FEET WITH NO
SIGNIFICANT WEATHER AND/OR OBSTRUCTIONS TO VISIBILITY.

* - STATION DOES NOT REPORT WEATHER SUCH AS PRECIPITATION OR FOG.

+ - STATION NOT QUALITY CONTROLLED BY THE NATIONAL WEATHER SERVICE.
    USE DATA WITH CAUTION...ESPECIALLY DEWPOINT AND RELATIVE
    HUMIDITY OBSERVATIONS.

INZ001>003-010>013-019-020-100400-
NORTHWEST INDIANA

CITY           SKY/WX    TMP DP  RH WIND       PRES   REMARKS
GARY /AIRPORT/ LGT SNOW  18   7  62 W14       29.95S WCI   4
RENSSELAER +   CLOUDY    18  10  73 W13       29.94S WCI   4

$$

LMZ046-743>745-100400-
SOUTHERN LAKE MICHIGAN

STATION/POSITION TIME  TEMP    WIND        PRES    WAVE
                       AIR SEA DIR/SP/G            HT
                 (UTC) (F)     (DEG/KT/KT) (MB)    (FT)
BURNS HARBOR     0222   20     300/ 16/ 22 1013.2F
MICHIGAN CITY    0200   20     270/ 21/ 24   N/A

$$

INZ004-005-014>016-021>024-100400-
NORTH CENTRAL INDIANA

CITY           SKY/WX    TMP DP  RH WIND       PRES   REMARKS
GOSHEN         LGT SNOW  19  14  81 W15       29.84S WCI   5
SOUTH BEND     LGT SNOW  18  15  88 W13       29.86S FOG     WCI   5

$$

INZ006>009-017-018-025>027-100400-
NORTHEAST INDIANA

CITY           SKY/WX    TMP DP  RH WIND       PRES   REMARKS
ANGOLA *+      CLOUDY    21  18  86 W12       29.78S WCI   9
FORT WAYNE     FLURRIES  21  13  71 W20G28    29.85S WCI   6

$$

INZ028-029-035-036-043>045-051>053-100400-
WEST CENTRAL INDIANA

CITY           SKY/WX    TMP DP  RH WIND       PRES   REMARKS
GREENCASTLE +  CLOUDY    16   7  67 W6        29.97S HAZE    WCI   7
LAFAYETTE      CLOUDY    16   9  74 W12       29.95F WCI   3
TERRE HAUTE    LGT SNOW  18  12  77 W9        30.00S WCI   7

$$

INZ030>032-037>040-046>048-054>057-064-065-100400-
CENTRAL INDIANA

CITY           SKY/WX    TMP DP  RH WIND       PRES   REMARKS
COLUMBUS       FLURRIES  18  14  86 W10       29.97  WCI   6
INDIANAPOLIS   LGT SNOW  15   9  76 NW10      29.94S WCI   2
-EAGLE CREEK   CLOUDY    15  10  80 W13       29.94S WCI   1
KOKOMO *+      CLOUDY    16   9  73 W14       29.90S WCI   1
MT COMFORT *+  CLOUDY    16  10  79 NW13G18   29.93S WCI   2
SHELBYVILLE    CLOUDY    17  10  74 W12       29.93S WCI   4

$$

INZ033-034-041-042-049-050-058-059-100400-
EAST CENTRAL INDIANA

CITY           SKY/WX    TMP DP  RH WIND       PRES   REMARKS
MUNCIE         CLOUDY    18  11  74 W16       29.88S WCI   3

$$

INZ060-061-067>069-081>083-085>088-100400-
SOUTHWEST INDIANA

CITY           SKY/WX    TMP DP  RH WIND       PRES   REMARKS
EVANSVILLE     CLOUDY    22  10  60 W6        30.08S WCI  14
HUNTINGBURG *+ CLOUDY    19  10  68 W16       30.05R WCI   5

$$

INZ062-063-066-070>080-084-089>092-100400-
SOUTH CENTRAL AND SOUTHEAST INDIANA

CITY           SKY/WX    TMP DP  RH WIND       PRES   REMARKS
BLOOMINGTON    LGT SNOW  17  13  84 W7        29.97S FOG     WCI   8
MADISON *+     CLOUDY    19  14  79 W8        29.98R WCI   9
SEYMOUR +      CLOUDY    19  12  73 W9        29.99R WCI   9

$$




USA.gov is the U.S. government's official web portal to all federal, state and local government web resources and services.